Wind_Speed
9 10 10 10 10 10 11 11 11 11 12 12 13 13 13 13 13 13 14 14 13 13 13 13 12 12 11 11 11 11 10 10 10 8 8 7 7 6 6 6 6 6 6
10 10 11 11 11 11 11 12 12 12 13 13 14 14 15 15 14 14 15 15 15 14 15 15 14 14 13 13 13 12 12 11 11 10 9 9 8 8 7 7 7 7 6
11 11 12 12 12 12 12 12 13 13 14 14 15 15 16 16 16 16 16 16 16 16 15 15 15 15 15 15 14 14 13 12 12 11 11 10 10 9 8 8 8 8 7
12 12 13 13 13 13 14 14 14 15 15 15 16 16 17 17 17 17 17 16 17 17 17 17 16 16 16 16 16 15 14 14 13 13 12 11 11 11 10 10 9 9 8
13 14 14 14 15 15 15 16 16 16 17 17 17 18 18 18 18 18 18 18 18 18 17 18 18 17 17 17 17 17 16 15 15 14 13 13 12 12 12 11 11 10 10
14 15 15 16 16 16 16 17 17 18 18 18 18 19 19 20 20 20 19 19 19 19 19 19 18 19 19 18 18 17 17 16 16 16 15 15 14 14 13 14 13 12 12
16 16 17 17 18 18 18 18 19 19 19 19 20 20 21 21 21 21 21 21 20 20 20 20 20 19 19 19 19 19 18 18 18 18 17 17 16 16 15 15 15 14 14
17 17 18 19 19 20 20 20 20 20 20 20 21 21 21 22 22 22 22 22 21 21 21 21 21 21 20 20 20 20 20 19 19 19 19 18 17 17 17 16 16 16 15
19 19 20 20 21 21 21 20 21 21 21 21 22 22 22 23 23 24 23 23 23 23 23 23 23 22 22 22 21 21 21 21 21 21 21 20 19 19 18 17 17 17 16
21 21 22 22 22 22 22 22 22 23 23 23 23 24 24 25 25 26 25 25 25 25 25 25 25 25 24 24 24 23 23 23 22 22 22 22 21 20 20 19 19 18 18
23 23 23 23 23 23 23 23 24 24 25 25 25 26 26 27 27 28 28 28 28 28 27 27 27 27 27 26 26 25 25 25 25 24 24 24 23 22 22 21 20 20 20
25 24 24 24 25 25 25 25 26 26 27 27 27 28 29 29 30 30 31 31 30 30 30 29 29 29 28 28 27 27 27 26 26 26 25 25 24 24 24 23 22 21 21
27 26 26 27 27 27 27 28 28 28 29 30 30 30 31 31 32 32 33 33 33 33 32 32 31 31 30 30 29 29 29 28 27 27 27 26 26 26 25 25 24 23 23
29 29 29 29 29 29 30 30 30 31 31 31 32 33 33 33 34 35 35 35 35 35 35 34 34 34 33 32 31 31 31 30 29 29 29 28 27 28 27 26 25 25 24
32 32 32 32 32 32 32 32 33 33 33 33 34 34 35 36 36 36 37 37 37 37 37 36 36 36 35 34 33 32 32 32 31 31 30 30 29 29 29 28 27 26 26
33 33 34 34 34 34 34 35 35 35 35 36 36 36 37 38 38 38 38 39 39 39 39 38 38 37 37 36 35 34 34 34 33 32 32 31 31 30 30 30 29 28 28
34 35 35 35 36 36 36 37 37 37 37 37 38 38 38 38 39 39 39 40 40 40 40 40 40 39 39 39 38 37 36 36 35 35 34 33 32 32 32 31 30 30 29
36 36 36 37 37 37 38 39 39 39 39 40 40 40 40 39 40 40 41 40 40 41 41 41 41 41 41 41 40 39 39 38 37 37 36 35 35 34 33 33 32 31 30
37 37 38 38 38 39 39 39 41 41 41 42 42 42 42 42 41 41 42 42 42 42 43 43 42 43 42 42 41 41 41 40 39 39 39 38 37 36 35 34 33 33 32
38 38 39 39 39 40 40 41 42 43 43 43 43 43 43 43 43 43 43 43 43 43 43 43 44 44 43 43 43 42 42 42 42 41 41 40 40 39 38 37 36 35 34
38 38 39 40 40 40 41 42 43 43 44 44 44 45 44 44 44 45 45 45 44 44 44 44 44 45 45 45 45 44 44 43 44 44 43 43 43 42 41 40 39 38 37
38 39 40 41 42 42 43 43 44 45 44 44 45 45 46 46 46 46 46 46 46 46 45 45 45 45 46 46 46 46 45 45 46 45 45 45 45 44 43 43 42 41 40
40 41 42 42 43 44 44 45 45 46 46 45 45 46 47 47 47 48 47 47 47 47 47 47 46 46 46 47 47 47 47 47 47 48 47 46 46 45 45 45 44 43 42
42 43 43 44 44 45 45 46 47 47 47 47 46 46 47 47 48 48 48 48 48 48 48 49 48 48 48 48 48 48 49 48 49 49 49 49 48 48 48 47 46 45 44
43 44 45 45 46 46 46 47 47 48 48 48 48 48 48 48 48 48 49 48 48 48 48 49 51 50 50 50 50 49 50 51 51 51 50 50 50 50 49 48 48 47 45
44 45 46 46 47 48 48 48 48 47 48 49 49 49 49 49 49 49 48 48 48 48 48 50 51 51 52 51 51 51 50 51 52 52 52 51 51 51 51 50 50 49 48
Wind_Direction
284 283 282 280 278 276 274 274 273 273 273 271 271 270 269 267 266 262 259 259 257 256 255 254 253 252 251 249 247 245 245 244 241 238 235 237 239 237 231 230 231 231 226
285 284 282 281 279 277 274 273 273 272 272 270 268 268 267 267 265 264 261 258 257 257 257 255 253 252 251 249 246 246 246 245 243 239 238 239 239 238 234 234 236 234 231
284 284 282 282 280 279 277 275 273 272 272 270 267 267 267 266 265 264 262 259 257 258 258 256 254 251 250 249 247 247 248 247 245 244 241 241 239 239 236 236 237 237 236
283 283 282 282 281 279 277 277 275 274 273 270 268 266 266 267 265 263 261 260 258 258 258 257 256 252 250 249 248 248 248 249 248 247 244 242 242 241 240 238 239 237 238
283 283 283 282 281 280 278 277 276 274 273 270 268 266 266 266 265 264 262 260 259 258 259 256 255 253 250 247 248 248 248 248 248 248 246 244 244 243 244 243 242 242 241
281 281 282 282 281 280 279 277 276 274 272 270 268 267 266 265 264 263 262 261 260 259 258 257 255 253 249 249 248 248 248 248 248 247 246 245 245 247 247 245 245 245 244
279 279 280 280 281 280 279 277 276 274 272 270 269 269 267 264 263 263 262 260 260 260 259 258 256 254 251 249 249 249 248 247 248 248 247 246 246 246 247 246 246 246 245
276 277 278 278 278 278 278 276 275 273 271 270 268 268 267 266 263 261 262 260 259 259 259 258 257 255 253 251 249 249 248 248 248 248 247 247 246 246 246 247 247 246 246
275 277 278 278 278 277 277 276 274 272 271 270 268 268 267 265 262 262 262 260 259 259 259 259 257 256 254 252 251 250 249 248 248 247 247 248 248 246 245 246 247 247 247
275 276 276 276 277 277 277 277 275 273 270 269 269 269 268 266 263 262 261 260 259 258 259 259 258 257 255 253 251 250 250 248 248 248 247 247 247 247 246 245 245 246 245
275 275 275 275 276 277 277 277 275 273 271 270 270 269 268 266 264 262 261 260 259 258 257 258 258 257 256 255 253 251 250 249 249 248 248 247 247 247 246 245 245 244 244
274 273 273 273 275 276 277 276 275 274 272 271 270 268 268 267 265 263 261 260 260 258 257 257 257 256 255 255 254 251 250 250 249 248 248 247 247 247 247 246 245 244 244
273 273 273 273 273 275 275 276 275 275 273 271 269 268 267 267 266 264 262 261 260 259 258 256 256 255 254 253 252 251 251 250 250 248 247 247 247 247 247 247 246 245 244
273 272 272 272 272 273 275 275 275 274 273 271 270 270 269 267 267 265 263 262 261 260 259 257 256 254 253 252 251 250 250 250 249 249 248 248 248 247 246 246 246 245 244
272 272 271 271 271 272 273 274 275 274 273 272 271 270 270 269 268 266 264 261 260 259 259 258 256 254 252 251 250 249 249 249 249 248 248 248 248 247 246 245 245 244 244
272 272 271 270 270 271 272 273 273 274 273 273 272 271 271 270 268 265 263 261 260 258 258 257 255 253 251 250 249 249 248 248 249 248 247 247 248 247 247 245 245 245 244
271 271 271 271 270 270 271 271 272 273 273 273 272 272 272 270 268 265 263 262 260 258 257 256 254 252 251 250 249 248 248 247 247 248 246 246 247 247 247 246 246 245 245
272 272 272 272 272 271 271 272 273 273 273 274 273 272 271 269 268 266 264 262 260 258 256 255 253 252 251 250 249 248 248 248 247 247 247 246 246 246 245 246 246 246 247
273 273 273 273 272 273 272 272 272 273 274 275 274 273 271 268 267 266 264 262 260 258 256 254 252 251 250 249 248 248 248 247 247 247 247 246 246 245 244 245 245 246 247
275 274 274 274 274 274 274 273 272 273 273 273 273 272 271 269 267 265 263 262 260 257 255 253 252 250 249 248 248 247 247 246 246 246 245 245 244 244 244 244 245 246 247
275 274 274 274 274 275 274 274 274 274 274 273 273 270 269 269 268 266 263 261 260 257 255 253 252 251 249 248 247 248 247 246 246 246 245 244 243 243 244 244 244 245 246
276 275 275 275 275 275 275 275 275 275 274 273 273 271 269 268 267 266 264 261 259 257 255 254 253 252 250 248 248 248 248 247 246 245 244 244 244 243 244 244 245 245 246
277 277 276 276 276 276 276 276 275 275 274 274 272 271 270 269 266 265 263 260 258 256 254 254 253 251 250 248 248 248 248 248 246 245 244 244 243 243 243 244 245 244 245
278 278 278 277 278 278 277 276 275 274 273 272 272 270 269 269 267 265 262 259 257 255 253 252 252 252 252 250 249 249 249 249 247 245 244 244 244 244 243 243 244 245 245
280 279 280 279 279 279 279 278 277 275 273 272 272 270 269 268 267 264 261 259 258 256 254 253 252 253 252 250 250 250 250 249 248 247 245 244 244 244 243 244 244 244 244
281 280 280 280 279 279 279 278 278 277 275 272 271 270 269 268 265 263 261 259 258 256 255 254 253 253 252 251 250 250 250 249 248 248 246 244 244 244 244 243 243 243 243
Height
5846 5845 5845 5844 5844 5844 5844 5844 5844 5844 5844 5844 5844 5844 5844 5844 5844 5845 5845 5845 5845 5846 5846 5846 5846 5847 5847 5847 5848 5848 5848 5848 5849 5849 5849 5849 5849 5850 5850 5850 5850 5850 5850
5843 5843 5843 5842 5842 5842 5842 5842 5842 5842 5842 5842 5842 5842 5842 5842 5842 5842 5843 5843 5843 5843 5844 5844 5844 5845 5845 5846 5846 5846 5847 5847 5847 5848 5848 5848 5848 5849 5849 5849 5849 5849 5850
5841 5841 5841 5840 5840 5840 5840 5839 5839 5839 5839 5839 5839 5839 5839 5840 5840 5840 5840 5841 5841 5841 5841 5842 5842 5842 5843 5843 5844 5844 5845 5845 5846 5846 5847 5847 5847 5847 5848 5848 5848 5848 5849
5839 5838 5838 5838 5837 5837 5837 5837 5837 5836 5836 5836 5836 5836 5837 5837 5837 5837 5837 5838 5838 5838 5839 5839 5839 5840 5840 5841 5841 5842 5843 5843 5844 5844 5845 5845 5846 5846 5846 5847 5847 5847 5847
5836 5836 5835 5835 5835 5834 5834 5834 5833 5833 5833 5833 5833 5833 5833 5834 5834 5834 5834 5835 5835 5836 5836 5836 5837 5837 5838 5838 5839 5839 5840 5841 5842 5842 5843 5843 5844 5844 5844 5845 5845 5846 5846
5833 5833 5832 5832 5832 5831 5831 5831 5830 5830 5830 5830 5830 5830 5830 5830 5830 5831 5831 5832 5832 5832 5833 5833 5834 5834 5835 5835 5836 5837 5838 5838 5839 5840 5840 5841 5841 5842 5842 5843 5843 5844 5844
5830 5829 5829 5828 5828 5828 5827 5827 5827 5826 5826 5826 5826 5826 5826 5826 5826 5827 5827 5828 5828 5829 5829 5830 5830 5831 5831 5832 5833 5834 5835 5835 5836 5837 5838 5838 5839 5839 5840 5840 5841 5841 5842
5826 5826 5825 5824 5824 5823 5823 5823 5822 5822 5822 5821 5821 5821 5821 5822 5822 5823 5823 5824 5824 5825 5825 5826 5826 5827 5828 5829 5829 5830 5831 5832 5833 5833 5834 5835 5836 5836 5837 5837 5838 5839 5839
5822 5822 5821 5820 5820 5819 5818 5818 5818 5817 5817 5817 5817 5817 5817 5817 5817 5818 5818 5819 5820 5820 5821 5821 5822 5823 5824 5825 5826 5826 5827 5828 5829 5830 5831 5831 5832 5833 5834 5834 5835 5836 5836
5818 5817 5816 5816 5815 5814 5814 5813 5813 5812 5812 5812 5812 5812 5812 5812 5812 5813 5813 5814 5815 5815 5816 5817 5817 5818 5819 5820 5821 5822 5823 5824 5824 5825 5827 5827 5828 5829 5830 5831 5832 5832 5833
5812 5812 5811 5810 5810 5809 5809 5808 5807 5807 5806 5806 5806 5806 5806 5806 5806 5807 5807 5808 5809 5810 5810 5811 5812 5813 5814 5815 5816 5817 5818 5819 5820 5821 5822 5823 5824 5825 5826 5827 5828 5829 5829
5806 5806 5805 5805 5804 5803 5803 5802 5801 5801 5800 5800 5800 5800 5800 5800 5800 5801 5801 5802 5803 5803 5804 5805 5806 5807 5808 5809 5810 5811 5813 5814 5815 5816 5817 5818 5819 5820 5821 5822 5823 5825 5826
5800 5799 5799 5798 5797 5797 5796 5795 5795 5794 5793 5793 5793 5792 5792 5793 5793 5793 5794 5794 5795 5796 5797 5798 5799 5800 5802 5803 5804 5805 5807 5808 5809 5811 5812 5813 5814 5815 5816 5818 5819 5820 5821
5792 5792 5792 5791 5790 5790 5789 5788 5788 5787 5786 5785 5785 5785 5785 5785 5785 5785 5785 5786 5787 5788 5789 5790 5791 5793 5794 5796 5797 5799 5800 5802 5803 5805 5806 5807 5809 5810 5811 5812 5814 5815 5817
5785 5784 5784 5783 5782 5782 5781 5780 5779 5779 5778 5777 5777 5776 5776 5776 5776 5776 5776 5777 5778 5779 5780 5781 5783 5784 5786 5788 5790 5791 5793 5795 5797 5798 5800 5801 5803 5804 5805 5807 5808 5810 5811
5777 5776 5775 5774 5773 5773 5772 5771 5770 5770 5769 5768 5768 5767 5767 5766 5766 5766 5766 5767 5768 5769 5770 5772 5773 5775 5777 5779 5781 5783 5785 5787 5789 5791 5793 5795 5796 5798 5799 5801 5802 5804 5806
5767 5767 5766 5765 5764 5763 5763 5762 5761 5760 5759 5758 5758 5757 5756 5756 5756 5756 5756 5756 5757 5759 5760 5762 5763 5765 5768 5770 5772 5775 5777 5779 5781 5783 5786 5787 5789 5791 5793 5794 5796 5798 5799
5758 5757 5756 5755 5754 5753 5753 5752 5751 5750 5749 5748 5747 5746 5745 5745 5745 5745 5745 5746 5747 5748 5749 5751 5753 5755 5758 5760 5763 5765 5768 5770 5772 5775 5777 5779 5781 5783 5785 5787 5789 5791 5793
5748 5747 5746 5745 5744 5743 5742 5741 5741 5740 5739 5738 5736 5735 5734 5734 5734 5734 5734 5735 5736 5737 5738 5740 5742 5744 5747 5750 5753 5755 5758 5760 5763 5765 5768 5770 5773 5775 5777 5779 5782 5784 5786
5737 5736 5735 5734 5733 5732 5731 5731 5729 5728 5727 5726 5725 5724 5723 5722 5722 5722 5722 5723 5724 5725 5727 5729 5731 5733 5736 5739 5742 5745 5747 5750 5753 5755 5758 5761 5763 5766 5768 5771 5773 5776 5778
5727 5726 5724 5723 5722 5721 5720 5719 5718 5716 5715 5714 5713 5712 5711 5711 5710 5710 5711 5711 5712 5714 5715 5717 5719 5721 5724 5727 5731 5734 5736 5739 5742 5745 5747 5751 5753 5756 5759 5762 5765 5767 5770
5716 5715 5713 5712 5711 5709 5708 5707 5705 5704 5703 5701 5700 5699 5699 5698 5698 5698 5698 5699 5700 5702 5704 5705 5707 5710 5712 5715 5719 5721 5725 5728 5731 5734 5736 5740 5743 5746 5749 5752 5755 5758 5761
5705 5704 5702 5700 5698 5697 5695 5694 5693 5691 5690 5689 5687 5686 5685 5685 5685 5685 5685 5686 5688 5689 5692 5694 5696 5698 5700 5703 5705 5709 5712 5716 5719 5723 5725 5728 5732 5735 5738 5741 5745 5748 5751
5694 5692 5690 5688 5686 5684 5682 5680 5679 5678 5676 5675 5674 5673 5672 5671 5671 5671 5671 5672 5674 5676 5678 5681 5683 5685 5688 5690 5693 5696 5699 5702 5706 5710 5714 5717 5720 5723 5727 5730 5734 5737 5740
5682 5680 5678 5675 5673 5671 5669 5667 5665 5663 5662 5661 5660 5659 5659 5658 5657 5657 5657 5659 5660 5662 5665 5667 5669 5672 5674 5677 5680 5683 5685 5689 5692 5696 5701 5705 5708 5711 5715 5718 5722 5726 5729
5670 5668 5665 5663 5660 5658 5655 5653 5651 5649 5647 5646 5646 5645 5644 5644 5644 5643 5644 5645 5647 5649 5651 5653 5655 5658 5661 5663 5666 5669 5672 5675 5679 5682 5687 5691 5695 5698 5702 5706 5710 5713 5718